Location: Ch?enovice
(49.7164°N, 15.2160°E)
Time: 17:06:55
(UTC+00:00)

Cosmos 1833 Rocket - Pass Details

Date: 23 May 2024
Orbit: 832 x 839 km, 71.0° (Epoch: 12 June)

Event Time Altitude Azimuth Distance (km) Brightness Sun altitude
Exits shadow 00:08:16 13° 252° (WSW) 2,250 4.6 -17.8°
Maximum altitude 00:12:42 33° 312° (NW) 1,369 4.0 -17.6°
Drops below altitude 10° 00:17:46 10° 16° (NNE) 2,455 6.4 -17.3°
Sets 00:20:28 0° 26° (NNE) 3,394 7.6 -17.2°
